User: anonymous   Login
Location: Desert Center
(33.7130°N, 115.4010°W)
Time: 02:02:37
(UTC-07:00)
Language:

USA 215 - Orbit

View from above orbital plane
View from above orbital plane
View from above satellite
View from above satellite

Ground track
Ground track

The orbit data is extracted from the following two-line orbital elements,

1 37162U 10046A   16115.83780736 0.00000000  00000-0  00000-0 0    09
2 37162 123.0053 317.1408 0004882  84.9165 275.0835 13.41427463    09
Epoch (UTC): 24 April 2016 20:06:26
Eccentricity: 0.0004882
inclination: 123.0053°
perigee height: 1100 km
apogee height: 1107 km
right ascension of ascending node: 317.1408°
argument of perigee: 84.9165°
revolutions per day: 13.41427463
mean anomaly at epoch: 275.0835°
orbit number at epoch: 0

The dashed part of the orbit path shows where the satellite is in the earth's shadow,  

DLR